| time (UTC) | temp C | wind direction | speed KPH | gust KPH | rain 1hr cm | rain 24hr cm | rain mn cm | humidity % | barometer mb |
| 20260505040821 | 16 | 0.0 | 3.2 | 0.00 | 0.00 | 0.00 | 87 | 1010.8 | |
| 20260505035822 | 16 | 0.0 | 0.0 | 0.00 | 0.00 | 0.00 | 86 | 1010.7 | |
| 20260505034823 | 16 | 0.0 | 0.0 | 0.00 | 0.00 | 0.00 | 84 | 1010.7 | |
| 20260505033822 | 16 | 0.0 | 0.0 | 0.00 | 0.00 | 0.00 | 81 | 1010.7 | |
| 20260505032823 | 16 | 0.0 | 0.0 | 0.00 | 0.00 | 0.00 | 77 | 1010.8 | |
| 20260505031818 | 17 | 0.0 | 0.0 | 0.00 | 0.00 | 0.00 | 74 | 1010.8 | |
| 20260505030826 | 17 | 0.0 | 0.0 | 0.00 | 0.00 | 0.00 | 73 | 1010.8 | |
| 20260505025827 | 17 | 141 | 4.8 | 6.4 | 0.00 | 0.00 | 0.00 | 72 | 1010.8 |
| 20260505024848 | 17 | 216 | 1.6 | 6.4 | 0.00 | 0.00 | 0.00 | 73 | 1010.7 |
| 20260505023831 | 16 | 0.0 | 0.0 | 0.00 | 0.00 | 0.00 | 74 | 1010.7 | |
| 20260505022832 | 16 | 180 | 0.0 | 1.6 | 0.00 | 0.00 | 0.00 | 74 | 1010.8 |
| 20260505021833 | 17 | 0.0 | 0.0 | 0.00 | 0.00 | 0.00 | 69 | 1010.8 | |
| 20260505020836 | 17 | 0.0 | 0.0 | 0.00 | 0.00 | 0.00 | 68 | 1010.7 | |
| 20260505015817 | 17 | 0.0 | 0.0 | 0.00 | 0.00 | 0.00 | 68 | 1010.6 | |
| 20260505014818 | 18 | 135 | 1.6 | 3.2 | 0.00 | 0.00 | 0.00 | 68 | 1010.5 |
| 20260505013840 | 18 | 180 | 0.0 | 1.6 | 0.00 | 0.00 | 0.00 | 68 | 1010.5 |
| 20260505012821 | 18 | 135 | 3.2 | 4.8 | 0.00 | 0.00 | 0.00 | 67 | 1010.4 |
| 20260505011822 | 18 | 126 | 4.8 | 9.7 | 0.00 | 0.00 | 0.00 | 67 | 1010.3 |
| 20260505010823 | 18 | 0.0 | 0.0 | 0.00 | 0.00 | 0.00 | 66 | 1010.2 | |
| 20260505005825 | 18 | 0.0 | 0.0 | 0.00 | 0.00 | 0.00 | 65 | 1010.1 | |
| 20260505004820 | 18 | 0.0 | 3.2 | 0.00 | 0.00 | 0.00 | 64 | 1010.1 | |
| 20260505003827 | 18 | 135 | 1.6 | 3.2 | 0.00 | 0.00 | 0.00 | 63 | 1010.1 |
| 20260505002828 | 18 | 1.6 | 3.2 | 0.00 | 0.00 | 0.00 | 63 | 1010.1 | |
| 20260505001829 | 18 | 135 | 0.0 | 3.2 | 0.00 | 0.00 | 0.00 | 62 | 1010.1 |
| 20260505000831 | 19 | 239 | 1.6 | 3.2 | 0.00 | 0.00 | 0.00 | 61 | 1010.1 |
| 20260504235832 | 20 | 151 | 3.2 | 8.0 | 0.00 | 0.00 | 0.00 | 59 | 1010.1 |
| 20260504234835 | 20 | 113 | 4.8 | 11.3 | 0.00 | 0.00 | 0.00 | 60 | 1010.0 |
| 20260504233816 | 20 | 180 | 1.6 | 6.4 | 0.00 | 0.00 | 0.00 | 59 | 1010.0 |
| 20260504232817 | 20 | 157 | 3.2 | 4.8 | 0.00 | 0.00 | 0.00 | 58 | 1010.1 |
| 20260504231818 | 20 | 161 | 3.2 | 4.8 | 0.00 | 0.00 | 0.00 | 57 | 1010.1 |
| 20260504230818 | 21 | 166 | 4.8 | 8.0 | 0.00 | 0.00 | 0.00 | 56 | 1010.1 |
| 20260504225819 | 21 | 0.0 | 1.6 | 0.00 | 0.00 | 0.00 | 55 | 1010.0 | |
| 20260504224820 | 21 | 0.0 | 4.8 | 0.00 | 0.00 | 0.00 | 54 | 1010.1 | |
| 20260504223822 | 21 | 164 | 4.8 | 8.0 | 0.00 | 0.00 | 0.00 | 54 | 1010.1 |
| 20260504222838 | 21 | 124 | 3.2 | 6.4 | 0.00 | 0.00 | 0.00 | 53 | 1010.0 |
| 20260504221825 | 21 | 152 | 8.0 | 11.3 | 0.00 | 0.00 | 0.00 | 53 | 1010.0 |
| 20260504220846 | 21 | 113 | 1.6 | 3.2 | 0.00 | 0.00 | 0.00 | 53 | 1010.1 |
| 20260504215848 | 21 | 128 | 3.2 | 9.7 | 0.00 | 0.00 | 0.00 | 53 | 1010.2 |
| 20260504214829 | 21 | 134 | 4.8 | 8.0 | 0.00 | 0.00 | 0.00 | 51 | 1010.2 |
| 20260504213830 | 22 | 194 | 3.2 | 6.4 | 0.00 | 0.00 | 0.00 | 51 | 1010.2 |
| 20260504212832 | 22 | 113 | 1.6 | 4.8 | 0.00 | 0.00 | 0.00 | 51 | 1010.1 |
| 20260504211815 | 22 | 180 | 3.2 | 9.7 | 0.00 | 0.00 | 0.00 | 50 | 1010.2 |
| 20260504210816 | 22 | 175 | 6.4 | 9.7 | 0.00 | 0.00 | 0.00 | 49 | 1010.2 |
| 20260504205837 | 22 | 60 | 1.6 | 3.2 | 0.00 | 0.00 | 0.00 | 50 | 1010.3 |
| 20260504204818 | 22 | 174 | 4.8 | 8.0 | 0.00 | 0.00 | 0.00 | 48 | 1010.4 |
| 20260504203815 | 22 | 185 | 6.4 | 9.7 | 0.00 | 0.00 | 0.00 | 48 | 1010.4 |
| 20260504202836 | 23 | 158 | 0.0 | 1.6 | 0.00 | 0.00 | 0.00 | 49 | 1010.5 |
| 20260504201817 | 23 | 165 | 3.2 | 6.4 | 0.00 | 0.00 | 0.00 | 47 | 1010.7 |
| 20260504200819 | 23 | 180 | 0.0 | 3.2 | 0.00 | 0.00 | 0.00 | 48 | 1010.9 |
| 20260504195840 | 23 | 101 | 1.6 | 3.2 | 0.00 | 0.00 | 0.00 | 49 | 1011.1 |
| 20260504194841 | 23 | 195 | 4.8 | 6.4 | 0.00 | 0.00 | 0.00 | 48 | 1011.3 |
| 20260504193822 | 22 | 135 | 3.2 | 4.8 | 0.00 | 0.00 | 0.00 | 48 | 1011.3 |
| 20260504192824 | 22 | 104 | 6.4 | 8.0 | 0.00 | 0.00 | 0.00 | 47 | 1011.4 |
| 20260504191825 | 22 | 203 | 3.2 | 9.7 | 0.00 | 0.00 | 0.00 | 48 | 1011.7 |
| 20260504190825 | 23 | 168 | 4.8 | 9.7 | 0.00 | 0.00 | 0.00 | 48 | 1011.8 |
| 20260504185827 | 23 | 146 | 3.2 | 6.4 | 0.00 | 0.00 | 0.00 | 49 | 1012.0 |
| 20260504184821 | 22 | 153 | 4.8 | 8.0 | 0.00 | 0.00 | 0.00 | 49 | 1012.1 |
| 20260504183827 | 22 | 169 | 3.2 | 4.8 | 0.00 | 0.00 | 0.00 | 49 | 1012.1 |
| 20260504182828 | 22 | 172 | 4.8 | 12.9 | 0.00 | 0.00 | 0.00 | 48 | 1012.0 |
| 20260504181829 | 22 | 112 | 6.4 | 8.0 | 0.00 | 0.00 | 0.00 | 47 | 1012.2 |
| 20260504180851 | 23 | 158 | 3.2 | 8.0 | 0.00 | 0.00 | 0.00 | 49 | 1012.4 |
| 20260504175832 | 22 | 143 | 4.8 | 8.0 | 0.00 | 0.00 | 0.00 | 48 | 1012.5 |
| 20260504174815 | 22 | 163 | 4.8 | 8.0 | 0.00 | 0.00 | 0.00 | 47 | 1012.7 |
| 20260504173836 | 22 | 198 | 3.2 | 6.4 | 0.00 | 0.00 | 0.00 | 50 | 1012.7 |
| 20260504172817 | 22 | 199 | 3.2 | 8.0 | 0.00 | 0.00 | 0.00 | 50 | 1012.8 |
| 20260504171819 | 22 | 191 | 6.4 | 11.3 | 0.00 | 0.00 | 0.00 | 49 | 1012.8 |
| 20260504170819 | 22 | 180 | 1.6 | 3.2 | 0.00 | 0.00 | 0.00 | 50 | 1013.2 |
| 20260504150829 | 18 | 169 | 1.6 | 4.8 | 0.00 | 0.00 | 0.00 | 56 | 1014.5 |
| 20260504140829 | 16 | 135 | 1.6 | 4.8 | 0.00 | 0.00 | 0.00 | 64 | 1014.6 |
| 20260504130818 | 14 | 13 | 1.6 | 3.2 | 0.00 | 0.00 | 0.00 | 70 | 1015.1 |
| 20260504081821 | 4 | 0.0 | 0.0 | 0.00 | 0.00 | 0.00 | 99 | 1015.8 | |
| 20260504080842 | 4 | 0.0 | 0.0 | 0.00 | 0.00 | 0.00 | 99 | 1015.8 | |
| 20260504045831 | 5 | 0.0 | 0.0 | 0.00 | 0.00 | 0.00 | 96 | 1015.9 | |
| 20260504044832 | 5 | 0.0 | 0.0 | 0.00 | 0.00 | 0.00 | 96 | 1015.9 | |
| 20260504043819 | 5 | 0.0 | 0.0 | 0.00 | 0.00 | 0.00 | 93 | 1015.9 | |
| 20260504042840 | 5 | 0.0 | 0.0 | 0.00 | 0.00 | 0.00 | 93 | 1015.8 |